{"data":{"norad_id":64379,"intl_designator":"2025-127K","name":"STARLINK-11743 [DTC]","alt_names":[],"object_type":"PAYLOAD","status":"ACTIVE","operator":null,"country":"US","launch_date":"2025-06-13","launch_site_code":"AFETR","launch_vehicle":null,"mission":null,"orbit_class":"UNKNOWN","rcs_meters":null,"size_class":null,"mass_kg":null,"dimensions":null,"purposes":["comms"],"wikipedia_slug":null,"has_3d_model":false,"image_url":null,"decayed_at":null,"tle_current":{"epoch":"2026-09-20T06:54:33.462720Z","epoch_age_seconds":152782,"freshness":"FRESH","line1":"1 64379U 25127K   26263.28788730  .00182218  00000+0  13853-2 0  9991","line2":"2 64379  42.9989 351.9158 0001494 242.1387 117.9329 15.70965467 74103","mean_motion":15.70965467,"eccentricity":0.0001494,"inclination_deg":42.9989,"raan_deg":351.9158,"arg_perigee_deg":242.1387,"mean_anomaly_deg":117.9329,"bstar":0.0013853,"rev_number":7410,"period_min":91.663377091917,"perigee_km":355.13037681094,"apogee_km":357.14257772595,"semimajor_km":6734.2734772684,"source":"CELESTRAK","updated_at":"2026-09-21T09:00:35.323510Z"}}}